Temperature
18 18 18 18 18 17 17 16 16 15 15 15 14 14 13 13 13 13 12 12 12 12 12 12 12 11 12 12 12 12 12 12 13 13 13 13 11 11 11 11 11 12 12
19 19 19 18 18 18 17 17 16 16 15 15 14 14 14 13 13 13 12 12 12 12 12 12 12 12 11 12 12 12 12 12 12 12 12 12 12 11 11 11 11 12 12
19 19 19 19 18 18 17 17 17 16 16 15 15 15 14 14 14 13 13 13 13 12 12 12 12 12 11 12 11 12 12 12 11 12 12 12 12 12 11 11 11 11 12
19 20 19 19 19 18 18 17 17 16 16 16 16 15 15 14 14 14 14 13 13 13 13 12 12 12 12 11 11 11 11 11 11 11 12 12 12 12 11 11 12 12 12
20 20 19 19 19 18 18 17 17 17 16 16 16 15 15 15 14 14 14 14 13 13 13 13 13 13 12 12 12 12 11 11 12 12 12 12 12 12 12 12 12 12 12
20 20 19 19 19 19 18 18 17 17 17 16 16 16 15 15 15 15 15 14 13 13 13 13 13 13 13 13 13 12 12 11 11 11 12 12 12 12 11 11 11 12 12
19 19 19 19 19 19 18 18 17 17 17 17 16 16 16 16 16 16 15 15 14 13 13 13 13 13 13 12 12 12 12 12 12 11 11 11 11 11 11 11 11 11 11
18 18 18 19 18 18 18 17 17 17 17 16 16 16 16 16 16 16 15 15 14 14 14 13 13 13 13 12 12 11 11 11 11 11 11 11 10 10 10 10 10 10 10
17 17 17 17 17 17 17 17 17 17 16 16 16 16 16 16 16 16 15 14 14 14 14 13 13 13 13 13 12 12 11 11 11 11 11 11 11 11 10 9 10 10 11
16 16 16 16 16 16 16 16 16 16 16 16 15 15 15 15 15 15 15 14 13 13 13 13 13 13 13 13 12 12 11 11 11 11 11 11 11 11 10 10 9 10 11
15 15 15 15 15 15 15 15 15 15 15 15 14 14 14 14 14 14 14 14 13 13 13 13 13 13 13 13 12 12 12 11 11 11 11 11 10 10 10 10 9 9 10
15 15 15 15 14 14 15 15 14 14 14 13 13 13 13 13 13 13 13 13 13 12 12 12 13 13 12 12 12 12 12 11 11 11 11 11 11 11 11 10 10 9 9
13 13 13 13 13 13 13 13 13 13 13 13 13 13 13 12 12 12 12 12 12 12 11 11 12 12 12 11 11 11 11 11 10 10 11 11 12 12 11 10 10 9 9
12 12 12 12 12 12 12 12 12 12 12 12 12 12 12 12 11 11 11 11 11 11 11 11 11 11 11 11 11 11 11 10 10 10 11 11 11 11 11 10 10 10 9
11 11 11 12 11 11 11 11 11 11 10 10 10 10 10 10 10 10 10 10 10 10 9 9 10 10 10 11 10 10 10 10 10 10 10 11 11 11 11 10 10 10 10
11 11 11 11 11 11 11 11 11 10 10 10 10 10 9 9 9 9 9 9 9 9 9 9 9 10 10 11 11 10 10 10 10 10 10 10 10 10 10 10 10 10 9
10 10 11 11 11 10 10 10 10 10 10 9 9 9 9 9 8 8 8 9 9 9 8 9 9 10 10 10 10 10 10 10 10 10 9 10 10 10 10 10 10 9 9
10 10 10 10 10 10 10 10 10 10 9 9 9 8 8 8 7 7 7 7 8 8 8 9 9 9 9 9 9 10 10 9 9 9 9 9 9 9 9 9 9 9 9
9 9 9 9 9 9 9 9 9 9 9 9 8 8 8 7 7 7 7 7 7 7 8 8 8 8 8 8 8 8 8 9 9 8 8 8 8 9 9 9 9 9 8
9 9 8 8 9 9 9 9 8 8 8 8 7 7 7 6 6 6 6 6 6 6 6 6 7 7 7 7 7 7 7 7 8 8 8 8 8 8 8 8 8 8 8
9 9 8 8 8 8 7 7 7 7 6 6 6 6 5 5 5 5 5 5 5 5 5 5 5 6 6 6 6 7 7 7 7 7 7 7 7 8 8 8 8 8 8
8 8 7 7 7 7 6 6 6 5 5 5 5 5 4 4 4 4 4 4 4 5 5 5 5 5 5 5 6 6 6 6 7 7 7 7 7 7 7 7 7 8 8
7 7 6 6 6 5 5 5 4 4 4 4 4 4 4 4 3 3 4 4 4 4 4 4 4 4 5 5 5 6 6 6 6 6 6 6 6 7 7 7 7 7 7
6 5 5 5 4 4 4 3 3 3 3 2 2 2 2 2 3 3 3 3 3 3 3 3 3 4 4 4 5 5 5 5 6 6 6 6 6 6 6 6 6 7 7
5 4 4 3 3 3 2 2 2 2 2 2 2 2 2 2 2 2 2 2 2 2 3 3 3 4 4 4 4 5 5 5 5 5 6 6 6 6 6 6 6 6 6
3 3 2 2 2 1 1 1 1 1 1 1 1 1 1 1 1 1 2 2 2 2 2 3 3 3 3 4 4 4 5 5 5 5 5 5 5 5 5 6 6 6 6
Wind_Speed
15 14 13 12 12 11 10 10 9 9 9 9 9 9 9 9 8 8 8 6 7 7 7 7 7 7 6 6 6 6 7 7 9 9 7 6 6 9 8 9 11 11 11
15 14 14 13 12 12 12 11 10 10 10 10 10 10 10 9 9 9 9 8 8 8 8 8 8 7 8 8 7 8 8 8 9 11 9 9 8 8 8 9 11 11 11
15 15 14 14 14 13 12 12 11 11 11 11 11 11 11 10 10 10 10 9 9 9 9 9 9 9 9 9 8 9 8 8 9 10 11 9 9 8 8 10 11 9 13
15 15 15 15 14 13 13 12 12 12 12 12 12 12 11 11 11 11 10 10 10 10 10 10 10 11 11 10 9 10 10 10 10 11 11 10 9 9 8 10 10 9 9
15 15 14 13 13 12 12 12 12 12 13 12 12 12 12 11 11 12 11 11 11 11 11 12 12 11 10 10 10 9 9 10 10 10 10 10 9 8 9 9 9 9 9
14 14 12 12 12 13 12 12 12 12 12 12 13 13 13 12 10 11 12 12 12 12 12 12 12 13 14 15 14 13 12 12 12 11 11 11 11 10 9 10 10 11 11
11 11 11 11 12 12 12 12 13 13 13 13 13 14 14 14 12 14 15 14 14 13 13 13 12 12 13 14 16 19 18 19 17 15 15 14 13 11 11 12 11 12 12
8 9 9 9 10 10 11 12 12 11 12 12 13 14 14 14 14 16 15 15 16 16 15 15 15 15 14 15 15 15 15 16 17 17 16 16 15 13 11 12 13 13 14
5 5 6 7 7 8 10 10 10 10 11 12 12 13 14 14 13 16 15 13 14 17 17 17 17 17 16 14 16 17 17 16 17 19 19 17 15 13 11 12 13 13 14
1 1 2 3 4 5 6 7 7 8 10 11 12 12 13 14 12 14 14 12 14 15 15 16 18 20 17 16 17 17 18 17 16 14 16 18 19 19 18 17 16 15 15
4 3 2 1 2 3 3 4 5 7 8 10 11 11 12 12 11 12 15 12 14 15 14 14 14 17 20 19 18 18 18 16 15 15 15 15 15 15 15 17 16 15 15
6 6 5 3 2 1 0 2 3 5 6 8 9 10 9 9 9 9 13 15 15 14 14 14 13 8 14 17 17 18 18 14 15 16 15 15 14 14 14 15 15 17 16
7 7 6 4 3 3 2 2 2 3 5 6 7 8 8 8 7 9 11 14 16 14 14 16 15 12 11 13 19 19 16 15 16 17 17 16 15 14 13 11 14 15 17
8 7 5 4 4 4 4 3 4 4 5 6 7 8 8 8 7 6 6 7 10 13 13 14 15 17 16 16 15 15 15 16 17 17 17 16 15 13 13 13 13 13 14
7 6 5 5 5 4 4 4 5 5 5 6 8 8 9 10 8 9 9 10 10 10 11 12 13 14 14 14 15 15 15 15 17 17 16 15 14 14 13 13 13 13 14
6 7 6 6 6 6 6 5 2 5 5 8 9 9 9 9 10 12 12 13 14 12 10 14 15 15 16 16 15 15 14 14 15 15 15 15 14 14 14 13 13 13 14
6 7 7 7 7 7 7 8 9 7 8 10 11 10 11 12 13 13 14 14 15 11 11 15 15 15 15 15 15 15 14 14 13 14 14 14 14 13 13 13 13 13 14
7 5 6 7 8 8 9 9 10 11 11 10 8 8 10 11 13 14 13 12 13 11 12 14 14 14 14 15 15 14 14 12 11 12 13 13 13 13 14 14 14 14 14
7 7 8 9 10 10 10 10 11 12 12 12 12 10 7 9 12 13 11 10 12 12 12 13 13 13 13 13 13 12 12 11 11 11 12 13 12 13 13 14 14 14 14
6 3 6 10 10 10 11 11 12 12 12 12 12 12 12 13 13 12 10 10 11 12 12 13 13 13 13 12 12 11 11 11 11 11 11 11 11 12 14 15 13 13 13
9 9 8 10 10 10 11 12 12 12 12 12 12 11 12 13 13 13 12 11 11 12 12 13 13 13 13 12 12 12 13 12 11 10 10 10 11 11 12 12 13 13 13
9 10 10 10 10 10 11 12 12 12 12 13 13 12 11 11 11 11 11 11 11 11 11 11 12 12 12 12 12 11 11 11 10 10 10 10 10 11 11 11 12 12 12
9 10 10 10 10 10 11 11 11 11 12 12 12 12 12 11 11 11 11 11 11 12 11 11 11 11 11 11 10 9 9 10 9 9 9 9 9 9 9 11 13 13 12
9 10 10 10 10 10 11 11 11 11 12 12 11 11 11 11 12 12 12 12 11 12 11 11 11 13 15 12 9 9 8 8 9 8 10 9 10 9 9 10 12 13 13
9 9 9 9 9 10 10 10 10 10 11 11 11 11 11 12 12 12 12 11 13 12 14 13 11 12 14 14 12 9 7 7 7 9 8 9 10 10 11 12 11 12 12
8 9 8 8 9 9 9 9 10 10 10 10 10 11 11 12 12 12 12 12 12 13 13 12 13 14 14 12 11 9 7 6 7 8 8 8 9 9 10 10 12 12 13
Wind_Direction
204 203 203 200 198 196 199 200 200 203 200 204 207 210 213 215 216 221 240 232 236 243 244 244 246 265 267 267 260 263 265 268 276 282 282 276 270 278 289 284 278 272 261
202 200 201 199 198 198 199 200 200 202 205 205 209 213 217 218 218 223 232 234 236 242 244 246 248 244 244 260 265 264 265 267 270 279 284 281 267 266 269 274 275 271 275
200 200 200 200 200 203 202 200 202 204 208 210 211 216 220 222 222 226 231 237 240 243 245 245 246 246 246 251 255 262 264 259 260 270 274 276 274 268 270 267 266 264 270
200 200 201 202 202 203 202 202 204 207 210 212 215 219 222 225 226 228 230 235 240 244 245 245 245 242 242 246 249 252 259 267 264 264 270 271 266 262 260 268 269 254 259
202 203 204 204 203 203 202 204 206 209 213 215 219 222 225 228 228 226 231 235 238 243 243 242 243 241 246 247 256 257 256 258 265 265 267 270 268 268 265 268 272 276 266
205 206 202 202 202 203 203 204 206 211 216 218 222 226 228 232 211 209 232 245 243 243 246 245 244 231 230 228 242 253 260 259 263 271 272 272 273 272 271 274 276 274 274
205 206 200 201 202 204 205 205 208 212 215 220 226 230 234 235 210 206 217 241 249 248 248 247 249 244 225 235 228 227 238 243 248 257 267 271 274 270 273 271 268 273 279
201 203 200 201 204 206 208 212 214 216 220 224 228 232 237 236 211 211 213 233 249 250 248 247 247 251 243 238 243 241 240 236 230 234 247 256 260 267 264 264 273 271 266
193 201 201 203 209 211 214 217 220 223 228 232 234 236 239 240 215 210 211 240 245 248 249 248 246 247 240 225 241 249 251 250 241 233 239 248 259 265 262 264 264 266 268
123 170 200 210 221 227 231 233 232 233 239 244 245 243 245 248 229 210 208 241 250 253 250 249 243 241 244 214 233 244 249 250 253 245 229 239 246 245 235 241 252 259 265
60 66 61 22 246 246 253 251 251 250 253 254 256 251 249 251 245 218 211 238 254 259 259 255 253 221 222 220 225 241 249 253 254 253 250 244 239 239 235 228 234 246 257
60 64 60 46 11 21 318 273 262 261 259 259 261 264 261 256 251 240 219 227 251 263 265 266 267 246 219 221 224 238 244 248 252 254 252 250 247 244 240 236 233 237 245
61 59 50 43 37 19 351 307 281 276 281 280 276 277 278 277 264 236 235 235 239 249 263 271 282 280 257 242 232 230 233 239 244 247 249 249 249 248 248 244 242 241 245
57 54 45 34 29 23 348 336 325 314 305 300 295 291 292 289 287 293 284 267 250 251 263 268 259 252 249 254 255 235 233 238 240 244 247 250 249 245 241 242 243 242 243
48 40 31 28 22 357 350 338 328 327 332 308 306 304 301 297 320 345 316 299 297 301 302 281 274 267 260 253 249 246 241 236 236 241 245 247 248 246 244 242 243 248 250
32 22 10 2 1 343 333 326 271 267 257 249 255 274 294 296 308 305 298 288 282 282 281 274 271 268 266 265 261 254 247 244 243 240 240 241 242 244 245 243 240 241 246
12 6 353 348 342 333 329 324 319 296 247 241 241 243 257 282 287 285 283 283 276 259 260 268 269 270 270 268 265 261 257 251 245 245 244 243 242 242 242 244 242 241 244
344 352 337 334 330 324 321 317 313 312 311 306 278 244 246 260 269 272 275 283 282 264 268 272 274 274 273 272 270 267 264 259 251 246 245 247 245 243 243 243 242 241 244
337 340 342 329 319 318 316 312 311 311 308 308 309 302 279 274 264 263 267 283 293 293 289 286 284 284 283 280 277 275 271 266 260 252 247 245 244 243 243 243 244 240 243
323 337 319 317 315 317 317 316 314 312 310 310 310 314 320 316 309 305 299 298 298 299 299 296 292 289 286 283 280 275 270 265 262 258 254 250 247 246 245 244 244 243 242
328 327 313 310 320 323 321 318 316 313 312 313 311 318 323 311 306 306 307 305 304 302 300 298 295 291 286 281 277 270 264 261 257 256 255 253 250 248 247 246 246 248 251
326 326 327 325 324 325 323 317 316 316 316 314 313 313 310 305 307 307 307 308 306 303 302 301 299 296 292 288 282 273 268 265 261 256 254 253 252 251 250 250 251 251 252
327 328 328 329 327 328 321 325 326 323 321 320 318 317 318 317 315 313 312 311 310 308 306 303 300 299 299 296 289 283 277 274 272 269 264 264 261 257 253 252 253 255 253
332 332 334 335 333 332 333 331 329 327 325 324 321 319 318 318 316 314 313 313 313 311 308 305 303 304 306 304 299 294 295 302 298 285 279 274 270 264 260 256 256 259 260
342 344 342 339 337 336 334 333 332 331 329 326 324 324 324 323 321 320 321 320 316 311 310 308 305 305 306 305 301 301 324 334 318 305 288 277 272 269 266 265 263 266 264
356 353 348 344 344 343 340 338 335 334 331 331 330 330 329 328 327 327 326 324 322 319 316 314 312 313 311 308 310 320 323 313 302 296 287 277 271 267 268 267 268 266 267
Height
1536 1538 1541 1543 1545 1546 1548 1549 1551 1552 1552 1554 1555 1556 1557 1557 1558 1558 1559 1559 1558 1558 1558 1558 1557 1556 1557 1557 1557 1556 1555 1555 1553 1552 1551 1550 1547 1546 1546 1544 1543 1542 1542
1532 1534 1536 1539 1541 1542 1544 1546 1547 1548 1549 1551 1552 1553 1554 1555 1555 1555 1555 1556 1556 1556 1556 1555 1555 1554 1553 1553 1553 1553 1552 1551 1550 1548 1547 1546 1545 1543 1541 1539 1539 1539 1538
1527 1529 1532 1534 1536 1538 1541 1542 1544 1545 1546 1548 1549 1550 1550 1551 1552 1552 1552 1553 1553 1553 1552 1552 1551 1551 1550 1550 1549 1549 1549 1548 1546 1545 1543 1542 1541 1540 1538 1536 1535 1533 1533
1523 1525 1527 1530 1532 1534 1536 1538 1540 1541 1542 1544 1545 1546 1547 1548 1548 1549 1549 1549 1549 1548 1548 1547 1547 1546 1546 1545 1545 1544 1544 1543 1542 1540 1539 1538 1537 1535 1534 1532 1531 1530 1529
1518 1520 1523 1525 1528 1530 1532 1534 1535 1537 1538 1540 1541 1542 1543 1543 1544 1545 1545 1545 1544 1544 1543 1542 1542 1541 1541 1540 1541 1541 1540 1539 1538 1537 1535 1534 1533 1532 1530 1529 1527 1526 1524
1513 1515 1518 1521 1523 1525 1527 1529 1531 1532 1534 1535 1536 1537 1538 1539 1539 1539 1539 1540 1539 1539 1538 1537 1537 1535 1534 1534 1534 1534 1533 1533 1533 1532 1531 1529 1528 1527 1526 1524 1523 1521 1520
1508 1511 1513 1516 1518 1520 1522 1524 1526 1527 1529 1530 1531 1532 1532 1533 1533 1534 1534 1534 1533 1533 1532 1531 1531 1531 1529 1528 1527 1526 1526 1525 1525 1525 1524 1523 1523 1522 1520 1519 1518 1516 1514
1505 1507 1509 1511 1514 1516 1518 1519 1521 1522 1523 1524 1525 1525 1526 1526 1527 1527 1527 1527 1526 1526 1525 1524 1524 1523 1523 1522 1522 1521 1519 1518 1517 1516 1515 1515 1515 1515 1514 1513 1511 1509 1507
1502 1504 1506 1508 1510 1511 1513 1514 1515 1517 1517 1518 1519 1519 1519 1519 1520 1520 1520 1519 1518 1517 1517 1517 1516 1515 1514 1514 1514 1513 1512 1511 1511 1509 1508 1507 1507 1507 1507 1506 1506 1504 1502
1500 1501 1503 1504 1506 1507 1508 1509 1510 1511 1511 1512 1513 1512 1512 1512 1512 1512 1512 1511 1511 1510 1509 1508 1507 1507 1506 1506 1505 1505 1504 1503 1504 1503 1500 1499 1498 1497 1497 1497 1497 1497 1495
1498 1498 1499 1501 1502 1502 1503 1504 1505 1505 1505 1505 1506 1505 1504 1504 1504 1504 1504 1503 1502 1502 1501 1500 1499 1498 1497 1497 1496 1496 1495 1495 1495 1494 1493 1492 1490 1489 1488 1487 1487 1487 1487
1496 1497 1497 1498 1499 1498 1498 1499 1499 1499 1499 1499 1499 1498 1498 1497 1496 1496 1495 1494 1493 1492 1491 1491 1491 1489 1488 1487 1486 1485 1486 1486 1486 1485 1484 1483 1482 1482 1481 1480 1479 1478 1477
1497 1496 1496 1497 1497 1496 1496 1496 1496 1495 1495 1495 1494 1493 1492 1491 1490 1488 1487 1486 1484 1482 1481 1480 1480 1479 1477 1476 1475 1475 1475 1475 1474 1474 1473 1473 1473 1472 1472 1471 1470 1469 1467
1496 1496 1496 1496 1496 1494 1494 1494 1493 1492 1491 1490 1489 1488 1486 1485 1484 1482 1480 1478 1476 1474 1473 1471 1469 1467 1466 1464 1464 1463 1462 1462 1462 1462 1462 1462 1463 1462 1462 1462 1462 1461 1459
1498 1497 1497 1496 1495 1493 1492 1490 1489 1488 1487 1485 1484 1482 1481 1479 1477 1474 1472 1471 1469 1467 1464 1462 1460 1458 1456 1454 1452 1452 1451 1450 1449 1450 1450 1451 1452 1452 1452 1452 1452 1452 1451
1499 1498 1497 1496 1494 1493 1491 1489 1486 1485 1482 1480 1478 1476 1474 1472 1469 1467 1465 1462 1460 1458 1455 1452 1451 1449 1446 1444 1443 1441 1440 1439 1438 1438 1438 1439 1440 1441 1441 1442 1442 1441 1441
1499 1498 1497 1495 1494 1492 1489 1486 1484 1481 1478 1475 1472 1470 1467 1465 1462 1459 1457 1454 1451 1449 1446 1443 1441 1439 1437 1434 1432 1431 1429 1428 1428 1428 1428 1428 1429 1430 1430 1431 1432 1432 1431
1499 1497 1495 1494 1491 1489 1486 1483 1480 1477 1474 1471 1468 1465 1461 1458 1455 1452 1449 1446 1443 1441 1438 1435 1433 1430 1427 1425 1423 1421 1420 1419 1418 1417 1418 1418 1419 1420 1420 1421 1422 1422 1422
1498 1496 1493 1491 1488 1486 1483 1479 1476 1473 1470 1466 1463 1460 1456 1452 1449 1446 1443 1440 1437 1434 1431 1428 1425 1422 1419 1417 1414 1412 1411 1410 1409 1409 1409 1409 1410 1410 1410 1411 1412 1412 1413
1495 1492 1489 1487 1485 1482 1479 1475 1472 1469 1465 1461 1458 1454 1451 1447 1444 1440 1437 1434 1431 1427 1424 1421 1417 1414 1411 1409 1406 1404 1403 1401 1401 1400 1400 1400 1401 1401 1401 1402 1403 1403 1403
1493 1490 1486 1484 1481 1478 1474 1471 1467 1464 1460 1456 1453 1449 1445 1442 1438 1435 1431 1428 1424 1421 1417 1414 1410 1407 1404 1401 1398 1396 1395 1394 1393 1393 1392 1392 1392 1393 1393 1394 1394 1395 1395
1489 1486 1483 1480 1477 1473 1470 1466 1463 1459 1455 1452 1448 1444 1440 1437 1433 1429 1425 1422 1419 1415 1411 1407 1403 1400 1397 1394 1391 1389 1388 1387 1386 1386 1385 1385 1385 1385 1386 1386 1387 1387 1387
1485 1482 1479 1476 1473 1469 1466 1462 1459 1455 1451 1447 1443 1439 1435 1432 1428 1424 1420 1416 1413 1409 1405 1401 1397 1393 1390 1387 1385 1383 1382 1381 1380 1380 1379 1379 1379 1379 1379 1379 1379 1380 1380
1481 1478 1475 1472 1469 1465 1462 1458 1455 1451 1447 1443 1439 1435 1431 1427 1423 1419 1415 1410 1406 1402 1398 1395 1391 1388 1384 1382 1379 1378 1377 1376 1375 1374 1373 1373 1372 1372 1373 1372 1372 1373 1373
1478 1475 1471 1468 1465 1462 1458 1455 1451 1447 1443 1439 1435 1431 1427 1423 1418 1414 1410 1405 1401 1397 1393 1389 1386 1382 1379 1377 1375 1373 1372 1370 1370 1369 1368 1367 1367 1367 1367 1366 1366 1366 1366
1475 1471 1468 1465 1462 1459 1455 1452 1448 1444 1440 1436 1432 1428 1424 1419 1415 1410 1406 1401 1397 1392 1388 1385 1381 1378 1375 1372 1370 1368 1367 1365 1364 1363 1362 1362 1361 1361 1360 1360 1359 1359 1358